Weather History for Dayton Wright, OH

Change the Weather History Date:

Sunday, March 23, 2014

  Actual Average (KFFO) Record (KFFO)
Temperature  
Mean Temperature 32 °F -  
Max Temperature 37 °F 51 °F 70 °F (2012)
Min Temperature 26 °F 31 °F 19 °F (2004)
Degree Days  
Heating Degree Days 33    
Moisture  
Dew Point 17 °F    
Average Humidity 55    
Maximum Humidity 72    
Minimum Humidity 39    
Precipitation  
Precipitation 0.00 in - - ()
Sea Level Pressure  
Sea Level Pressure 30.27 in    
Wind  
Wind Speed 9 mph (North)    
Max Wind Speed 16 mph    
Max Gust Speed 24 mph    
Visibility 10 miles    
Events      
Averages and records for this station are not official NWS values.
T = Trace of Precipitation, MM = Missing Value Source: NWS Daily Summary

Daily Weather History Graph

Daily Weather History Graph

Search for Another Location

Airport:

Trip Planner

Search our weather history database for the weather conditions in past years. The results will help you decide how hot, cold, wet, or windy it might be!

Date:

Astronomy

Mar. 23, 2014 Rise Set
Actual Time 7:35 AM EDT 7:51 PM EDT
Civil Twilight 7:08 AM EDT 8:18 PM EDT
Nautical Twilight 6:37 AM EDT 8:50 PM EDT
Astronomical Twilight 6:05 AM EDT 9:22 PM EDT
Moon 2:06 AM EDT (3/23) 12:16 PM EDT (3/23)
Length of Visible Light 13h 10m
Length of Day
12h 16m
Waning Gibbous, 55% of the Moon is Illuminated
Mar 23
Waning Gibbous
Mar 23
Last Quarter
Mar 30
New
Apr 7
First Quarter
Apr 15
Full

Hourly Weather History & Observations

Time (EDT) Temp. Windchill Dew Point Humidity Pressure Visibility Wind Dir Wind Speed Gust Speed Precip Events Conditions
12:53 AM 37.0 °F 34.5 °F 28.0 °F 70% 30.19 in 10.0 mi NNW 3.5 mph - N/A   Clear
1:53 AM 37.0 °F 32.4 °F 28.0 °F 70% 30.19 in 10.0 mi NNW 5.8 mph - N/A   Clear
2:53 AM 36.0 °F 30.3 °F 27.0 °F 70% 30.19 in 10.0 mi North 6.9 mph - N/A   Partly Cloudy
3:53 AM 35.1 °F 26.9 °F 27.0 °F 72% 30.19 in 10.0 mi North 11.5 mph - N/A   Overcast
4:36 AM 34.0 °F 25.5 °F 23.0 °F 64% 30.19 in 10.0 mi North 11.5 mph - N/A   Overcast
4:53 AM 34.0 °F 25.0 °F 23.0 °F 64% 30.22 in 10.0 mi North 12.7 mph - N/A   Overcast
5:53 AM 32.0 °F 22.5 °F 21.0 °F 64% 30.22 in 10.0 mi North 12.7 mph - N/A   Overcast
6:53 AM 30.9 °F 21.7 °F 21.0 °F 67% 30.25 in 10.0 mi North 11.5 mph - N/A   Overcast
7:21 AM 30.9 °F 22.8 °F 21.9 °F 69% 30.23 in 10.0 mi North 9.2 mph - N/A   Overcast
7:53 AM 30.9 °F 21.2 °F 21.0 °F 67% 30.26 in 10.0 mi North 12.7 mph - N/A   Overcast
8:53 AM 28.9 °F 18.6 °F 12.9 °F 51% 30.28 in 10.0 mi North 12.7 mph - N/A   Overcast
9:03 AM 28.9 °F 19.2 °F 12.9 °F 51% 30.26 in 10.0 mi North 11.5 mph - N/A   Overcast
9:53 AM 30.0 °F 18.7 °F 14.0 °F 51% 30.30 in 10.0 mi NNE 16.1 mph 21.9 mph N/A   Mostly Cloudy
10:53 AM 30.0 °F 19.5 °F 12.9 °F 49% 30.31 in 10.0 mi NNE 13.8 mph - N/A   Overcast
11:53 AM 32.0 °F 21.6 °F 12.0 °F 44% 30.32 in 10.0 mi NNE 15.0 mph 20.7 mph N/A   Mostly Cloudy
12:53 PM 33.1 °F 26.9 °F 12.0 °F 42% 30.31 in 10.0 mi Variable 6.9 mph 19.6 mph N/A   Overcast
1:53 PM 33.1 °F 22.6 °F 12.0 °F 42% 30.31 in 10.0 mi NNW 16.1 mph 21.9 mph N/A   Overcast
2:53 PM 33.1 °F 26.1 °F 12.0 °F 42% 30.30 in 10.0 mi NNW 8.1 mph 24.2 mph N/A   Mostly Cloudy
3:53 PM 34.0 °F - 12.9 °F 42% 30.29 in 10.0 mi North - - N/A   Scattered Clouds
4:53 PM 35.1 °F 25.5 °F 14.0 °F 42% 30.28 in 10.0 mi North 15.0 mph 19.6 mph N/A   Mostly Cloudy
5:53 PM 35.1 °F 25.2 °F 12.0 °F 39% 30.29 in 10.0 mi North 16.1 mph - N/A   Mostly Cloudy
6:53 PM 32.0 °F 23.6 °F 12.9 °F 45% 30.30 in 10.0 mi North 10.4 mph - N/A   Overcast
7:53 PM 30.0 °F 21.7 °F 12.0 °F 47% 30.32 in 10.0 mi North 9.2 mph - N/A   Clear
8:53 PM 28.0 °F 21.7 °F 12.9 °F 53% 30.33 in 10.0 mi North 5.8 mph - N/A   Clear
9:53 PM 27.0 °F 18.7 °F 12.9 °F 56% 30.34 in 10.0 mi North 8.1 mph - N/A   Scattered Clouds
10:53 PM 27.0 °F 19.5 °F 12.0 °F 53% 30.35 in 10.0 mi North 6.9 mph - N/A   Scattered Clouds
11:53 PM 26.1 °F 20.5 °F 12.0 °F 55% 30.35 in 10.0 mi NNE 4.6 mph - N/A   Clear